This is the latest recevied weather packets stored in our database for station/object KD7JB. If no packets are shown the sender has not sent any weather packets the latest 10 day(s).
| Time | Temp. | Humidity | Pressure | Rain* | Wind** | Luminosity | Snow |
|---|---|---|---|---|---|---|---|
| 1778038431 | 16.67° C | 49% | 1174.2 hPa | 0 mm | - | 1 W/m² | - |
| 1778038128 | 16.67° C | 48% | 1174 hPa | 0 mm | - | 1 W/m² | - |
| 1778037825 | 16.67° C | 49% | 1174 hPa | 0 mm | - | 2 W/m² | - |
| 1778037522 | 17.22° C | 49% | 1174.2 hPa | 0 mm | - | 4 W/m² | - |
| 1778037219 | 16.67° C | 50% | 1173.9 hPa | 0 mm | - | 5 W/m² | - |
| 1778036917 | 17.22° C | 50% | 1174 hPa | 0 mm | - | 8 W/m² | - |
| 1778036615 | 17.22° C | 49% | 1174 hPa | 0 mm | - | 10 W/m² | - |
| 1778036311 | 17.78° C | 48% | 1173.9 hPa | 0 mm | - | 13 W/m² | - |
| 1778036007 | 18.33° C | 47% | 1173.8 hPa | 0 mm | - | 15 W/m² | - |
| 1778035705 | 18.33° C | 47% | 1174 hPa | 0 mm | - | 18 W/m² | - |
| 1778035401 | 18.89° C | 46% | 1174 hPa | 0 mm | - | 21 W/m² | - |
| 1778035098 | 18.89° C | 46% | 1173.9 hPa | 0 mm | - | 24 W/m² | - |
| 1778034795 | 18.89° C | 45% | 1173.8 hPa | 0 mm | - | 26 W/m² | - |
| 1778034491 | 19.44° C | 45% | 1174 hPa | 0 mm | - | 29 W/m² | - |
| 1778034189 | 19.44° C | 44% | 1174 hPa | 0 mm | - | 33 W/m² | - |
| 1778033887 | 19.44° C | 44% | 1173.7 hPa | 0 mm | - | 38 W/m² | - |
| 1778033584 | 20° C | 44% | 1173.9 hPa | 0 mm | - | 44 W/m² | - |
| 1778033280 | 20° C | 43% | 1173.9 hPa | 0 mm | - | 50 W/m² | - |
| 1778032978 | 20° C | 42% | 1173.9 hPa | 0 mm | - | 57 W/m² | - |
| 1778032676 | 20° C | 42% | 1173.8 hPa | 0 mm | - | 64 W/m² | - |
| 1778032373 | 20° C | 42% | 1173.8 hPa | 0 mm | - | 72 W/m² | - |
| 1778032069 | 20.56° C | 42% | 1174 hPa | 0 mm | - | 80 W/m² | - |
| 1778031766 | 20° C | 42% | 1173.6 hPa | 0 mm | - | 89 W/m² | - |
| 1778031463 | 20° C | 42% | 1173.8 hPa | 0 mm | - | 72 W/m² | - |
| 1778031160 | 20.56° C | 41% | 1173.7 hPa | 0 mm | - | 90 W/m² | - |
* Rain latest hour (hover to see other rain measurements)
** Current wind speed in m/s (hover to see current wind gust speed)